Location: Larkspur
(54.4391°N, 113.7691°W)
Time: 14:03:09
(UTC+00:00)

METEOR M2 - Pass Details

Date: 11 December 2023
Orbit: 819 x 826 km, 98.4° (Epoch: 02 March)

Event Time Altitude Azimuth Distance (km) Brightness Sun altitude
Rises 13:01:51 0° 19° (NNE) 3,373 ? -22.3°
Reaches altitude 10° 13:04:20 10° 26° (NNE) 2,435 ? -21.9°
Maximum altitude 13:09:28 43° 97° (E) 1,145 ? -21.2°
Drops below altitude 10° 13:14:32 10° 169° (S) 2,413 ? -20.5°
Sets 13:16:59 0° 176° (S) 3,340 ? -20.1°
